This is the latest recevied weather packets stored in our database for station/object YO6IKB-10. If no packets are shown the sender has not sent any weather packets the latest 10 day(s).
| Time | Temp. | Humidity | Pressure | Rain* | Wind** | Luminosity | Snow |
|---|---|---|---|---|---|---|---|
| 1778065151 | 26.11° C | 34% | 1009.1 hPa | 0 mm | - | - | - |
| 1778064851 | 26.11° C | 34% | 1009.3 hPa | 0 mm | - | - | - |
| 1778064550 | 26.11° C | 34% | 1009.2 hPa | 0 mm | - | - | - |
| 1778064250 | 26.11° C | 35% | 1009.5 hPa | 0 mm | - | - | - |
| 1778063950 | 26.67° C | 35% | 1009.6 hPa | 0 mm | - | - | - |
| 1778063649 | 26.67° C | 36% | 1009.7 hPa | 0 mm | - | - | - |
| 1778063349 | 25.56° C | 37% | 1009.8 hPa | 0 mm | - | - | - |
| 1778063049 | 25.56° C | 37% | 1009.9 hPa | 0 mm | - | - | - |
| 1778062748 | 25° C | 37% | 1010 hPa | 0 mm | - | - | - |
| 1778062448 | 25° C | 36% | 1010 hPa | 0 mm | - | - | - |
| 1778062148 | 25.56° C | 36% | 1010.2 hPa | 0 mm | - | - | - |
| 1778061848 | 26.11° C | 36% | 1010.2 hPa | 0 mm | - | - | - |
| 1778061547 | 26.11° C | 36% | 1010.3 hPa | 0 mm | - | - | - |
| 1778061247 | 26.67° C | 36% | 1010.3 hPa | 0 mm | - | - | - |
| 1778060947 | 26.11° C | 38% | 1010.3 hPa | 0 mm | - | - | - |
| 1778060646 | 25.56° C | 38% | 1010.5 hPa | 0 mm | - | - | - |
| 1778060346 | 25.56° C | 39% | 1010.6 hPa | 0 mm | - | - | - |
| 1778060046 | 25.56° C | 40% | 1010.7 hPa | 0 mm | - | - | - |
| 1778059746 | 25.56° C | 39% | 1010.6 hPa | 0 mm | - | - | - |
| 1778059445 | 25.56° C | 39% | 1010.7 hPa | 0 mm | - | - | - |
| 1778059145 | 26.11° C | 39% | 1010.7 hPa | 0 mm | - | - | - |
| 1778058845 | 26.67° C | 40% | 1010.7 hPa | 0 mm | - | - | - |
| 1778058544 | 26.11° C | 42% | 1010.8 hPa | 0 mm | - | - | - |
| 1778058244 | 25.56° C | 42% | 1010.9 hPa | 0 mm | - | - | - |
| 1778057944 | 25° C | 43% | 1010.9 hPa | 0 mm | - | - | - |
* Rain latest hour (hover to see other rain measurements)
** Current wind speed in m/s (hover to see current wind gust speed)